Wind_Speed
12 12 13 12 13 12 11 11 11 10 11 10 10 9 9 9 8 8 8 8 7 7 7 6 5 5 5 4 4 4 4 4 4 3 3 3 3 4 4 5 5 5 6 6 5 5 4 4 4
12 12 12 13 13 11 11 11 11 11 11 11 11 10 9 9 9 8 8 8 7 7 6 6 5 5 5 4 4 4 5 5 5 4 4 4 4 5 5 5 5 6 6 5 5 4 4 3 3
12 12 12 12 12 10 10 11 11 11 11 11 11 11 10 10 9 9 8 8 7 7 7 6 5 5 5 4 4 4 5 5 6 6 6 6 5 5 5 5 5 5 5 4 4 3 3 3 3
11 12 12 12 10 10 10 10 11 11 11 11 11 11 11 10 10 9 8 8 7 7 6 6 5 5 5 5 5 4 5 5 5 6 6 6 5 5 5 5 4 4 4 3 3 3 2 2 2
11 11 12 11 10 10 10 10 10 10 11 11 11 11 11 10 10 10 9 8 7 7 6 6 6 5 5 5 4 4 4 4 5 6 6 5 5 5 4 4 3 3 2 3 2 2 2 2 2
11 11 11 10 10 11 11 11 11 10 10 10 11 11 11 11 10 10 9 9 8 7 7 6 6 5 5 5 4 4 3 5 5 6 6 5 5 5 4 4 3 2 2 2 2 2 2 3 3
11 11 10 11 10 11 11 11 11 10 10 11 11 10 10 10 10 10 9 9 9 8 7 7 7 6 6 5 5 5 5 4 4 5 5 4 4 3 3 3 2 1 1 1 2 2 2 2 3
10 12 11 10 10 10 10 10 10 10 10 10 10 10 10 10 10 10 9 9 9 9 8 7 6 7 7 6 6 6 5 4 4 4 4 4 3 2 2 2 1 1 0 0 1 2 2 2 2
11 11 9 9 9 9 10 10 9 9 9 9 10 10 10 10 10 10 10 10 10 9 9 8 7 7 7 6 6 6 5 4 4 4 4 4 3 3 2 2 1 2 1 1 2 2 3 3 3
11 10 9 9 9 9 9 9 9 9 9 9 10 10 10 10 10 10 10 10 10 10 9 9 8 7 7 6 5 5 5 4 4 4 4 3 3 3 2 2 3 3 2 2 2 3 3 3 3
10 9 8 8 8 8 9 9 9 9 9 9 9 9 9 9 9 10 10 10 9 10 10 10 9 8 7 6 6 6 5 5 5 4 4 4 4 3 3 3 3 3 3 3 2 3 3 4 3
8 8 7 7 7 7 7 8 8 8 9 9 9 9 9 9 9 10 10 10 9 9 9 10 9 8 7 6 6 6 5 5 5 5 5 5 5 5 4 4 4 4 3 3 4 4 4 4 4
6 6 6 6 7 7 7 8 8 8 8 9 9 9 9 9 9 10 10 10 10 9 9 9 9 8 8 7 6 5 5 5 5 5 5 5 5 6 5 5 5 4 4 4 4 4 4 4 5
6 5 6 6 6 7 7 7 7 8 8 8 8 9 9 9 9 9 9 9 9 9 9 9 8 8 8 8 7 6 6 5 5 5 5 5 6 7 7 6 6 5 4 4 5 5 5 5 5
4 4 4 4 5 5 6 7 7 7 8 8 8 8 8 9 8 7 7 8 8 9 8 8 8 8 8 8 7 6 6 6 5 5 5 6 7 7 7 7 7 6 5 5 5 6 6 6 5
4 3 3 3 4 5 6 6 6 7 7 7 7 7 7 7 7 6 6 7 8 8 8 8 8 7 7 7 7 6 5 5 5 5 6 6 7 7 6 7 7 6 5 6 6 7 6 6 5
2 2 2 2 3 4 4 5 5 6 6 7 7 7 6 6 6 6 6 7 7 7 8 7 8 8 7 7 6 6 6 5 5 6 6 6 6 7 6 7 7 7 6 6 7 7 7 6 6
1 1 1 1 2 3 4 4 5 5 6 6 6 6 6 7 7 6 6 6 7 7 7 7 8 8 7 6 6 6 6 5 5 5 6 6 6 7 7 6 6 7 7 7 7 7 7 7 7
2 2 1 0 0 2 3 4 5 5 5 6 6 7 7 7 7 7 7 7 7 7 7 7 8 8 7 6 6 6 6 6 5 5 6 7 7 7 7 6 7 7 7 7 8 8 8 7 7
3 3 2 2 2 2 2 3 5 5 5 6 6 7 8 8 8 8 7 7 7 7 7 7 7 8 7 7 6 6 7 7 6 6 6 7 7 7 7 7 7 8 8 9 9 9 9 8 8
3 3 3 3 3 4 3 4 6 6 6 6 6 7 8 9 9 9 8 8 8 8 8 8 8 9 9 8 8 7 7 7 7 7 7 8 7 7 8 8 8 8 9 9 10 10 9 9 9
4 5 4 4 3 4 4 4 6 6 7 7 7 7 8 9 9 9 10 9 9 8 9 9 9 9 9 9 9 8 8 8 9 9 9 9 8 8 8 9 9 9 10 10 10 10 10 10 10
5 6 6 5 5 4 5 4 6 7 8 8 8 8 10 10 10 10 10 10 9 9 10 10 10 10 10 10 9 9 10 10 10 10 10 10 10 10 9 10 10 10 10 10 11 11 11 11 11
7 6 6 6 5 5 6 5 6 8 9 9 9 10 11 11 10 9 9 10 9 9 9 10 11 11 11 11 11 10 10 10 11 11 11 11 10 11 10 11 11 11 11 12 12 12 12 12 12
7 5 5 6 6 7 7 6 7 9 9 10 10 11 12 11 10 9 10 10 10 10 10 11 12 12 12 12 12 11 11 11 12 12 12 12 12 12 12 12 12 13 13 14 14 14 14 14 14
7 6 6 6 7 8 8 7 9 10 10 11 11 12 12 12 11 11 11 11 11 11 11 12 12 12 12 12 13 13 13 13 13 12 12 13 13 13 13 13 14 15 15 16 15 15 15 16 16
9 9 9 9 9 8 9 10 10 11 12 12 12 13 13 13 13 12 12 12 12 12 12 12 12 12 13 13 13 14 14 14 14 13 13 13 13 14 14 15 16 16 16 17 17 17 18 18 18
11 11 11 10 10 10 10 10 12 12 12 13 14 14 13 13 13 13 12 12 12 12 13 13 13 13 14 14 14 15 14 14 14 14 14 14 15 16 16 17 18 18 19 19 20 19 19 20 20
13 12 12 12 12 11 11 12 13 13 13 14 14 13 14 14 14 13 13 13 14 14 14 15 15 15 15 15 15 15 15 16 16 16 16 16 17 17 18 19 19 20 20 21 21 21 21 21 21
14 14 13 13 14 14 13 14 14 14 14 14 14 14 15 15 15 15 15 15 15 15 16 15 16 16 16 16 17 17 17 16 16 17 17 18 19 19 20 20 20 21 21 22 22 22 22 22 23
Wind_Direction
82 79 78 77 79 76 79 78 76 75 73 73 71 69 67 64 62 65 68 63 61 58 54 55 52 49 55 64 78 86 84 80 85 97 110 122 132 129 132 143 148 148 150 153 150 160 171 185 190
83 79 79 75 79 77 76 77 75 73 70 69 67 65 62 59 59 62 62 60 58 57 55 57 57 52 53 67 75 87 91 81 81 82 91 107 114 122 126 129 134 135 138 139 138 144 154 172 184
86 80 79 76 79 85 80 76 73 71 69 66 65 63 59 57 57 59 59 56 57 53 50 55 62 61 62 64 61 67 78 89 89 85 88 100 110 116 116 115 123 128 132 139 143 145 159 170 188
87 82 78 76 75 79 79 75 74 70 67 65 63 61 57 55 54 56 55 56 54 50 50 52 59 63 67 71 70 63 78 91 93 93 94 97 107 114 118 119 121 134 139 148 160 165 172 182 192
86 83 77 73 76 78 78 76 73 71 67 63 62 57 54 52 52 51 53 54 52 49 51 54 55 64 75 76 69 65 75 85 96 97 95 97 101 108 118 118 123 149 148 151 169 176 202 227 218
85 82 80 79 76 78 77 74 74 73 68 65 61 55 52 51 49 48 49 52 52 48 46 49 47 53 65 70 70 75 88 78 86 90 94 98 100 103 108 114 118 133 173 185 192 214 228 238 241
86 86 86 81 75 75 76 74 73 71 66 63 59 53 50 48 46 48 49 52 52 49 47 50 50 50 55 64 67 72 79 78 85 89 92 97 100 104 100 102 106 106 162 226 234 252 258 247 252
91 89 82 79 74 71 73 73 70 67 62 58 55 53 50 50 49 49 50 52 52 50 48 48 51 55 60 66 71 70 71 80 85 81 83 84 83 87 96 86 62 15 41 229 265 279 277 276 261
92 88 87 83 76 71 71 71 67 63 59 55 51 50 53 53 53 52 51 53 53 50 49 49 58 65 64 66 67 64 66 75 73 65 66 63 54 59 70 52 27 14 20 309 298 306 297 279 273
95 95 90 83 75 71 70 69 65 61 59 55 54 52 52 53 53 52 51 51 49 47 48 51 56 60 60 61 62 58 61 70 70 63 54 48 39 41 35 16 7 10 359 330 317 319 312 286 271
98 99 91 79 72 68 68 66 64 63 63 58 55 50 50 53 51 50 50 50 47 45 47 49 51 54 57 56 54 58 62 69 70 70 56 47 41 29 11 3 351 356 353 354 350 334 319 301 287
98 98 91 83 75 68 66 66 65 64 63 60 59 54 50 52 52 51 52 50 48 46 46 50 51 51 48 52 56 57 57 60 63 64 51 42 38 29 7 350 349 354 345 344 343 336 320 306 296
105 100 90 81 75 69 65 63 61 60 60 58 60 55 53 54 55 54 51 48 46 46 47 48 49 49 47 49 51 53 50 50 50 49 46 38 29 22 13 359 348 347 337 328 328 329 321 307 309
107 99 88 79 69 68 63 58 57 56 57 54 55 56 55 54 54 51 48 43 40 41 44 45 45 44 44 46 49 51 46 39 39 42 37 27 22 15 8 2 353 346 339 336 332 324 316 310 303
100 92 85 76 68 64 60 53 53 53 51 50 52 52 52 53 50 46 41 36 34 34 37 40 39 36 36 37 40 40 39 38 39 35 25 20 16 11 5 4 1 358 353 347 337 327 322 317 304
87 79 65 71 66 66 66 50 43 44 44 44 47 46 43 42 39 36 32 25 25 25 27 30 30 28 28 30 33 33 32 30 25 20 13 9 5 3 1 1 359 359 354 348 343 336 329 325 318
76 74 62 66 71 60 51 41 33 37 35 33 38 35 31 27 22 22 20 17 15 15 16 18 17 16 17 24 31 32 30 23 14 6 359 1 4 360 356 356 356 356 352 345 338 334 330 327 324
158 129 117 72 69 54 41 27 19 26 26 22 24 21 16 14 8 8 6 6 5 4 6 8 5 3 5 14 16 14 12 9 3 355 351 352 353 351 352 352 347 347 347 340 335 331 331 329 321
191 179 196 205 21 30 25 13 1 3 7 10 9 6 5 5 360 357 352 351 351 351 355 355 357 357 358 359 0 356 353 350 347 341 341 344 343 344 342 342 340 338 339 335 331 327 327 326 319
219 212 238 273 291 312 335 345 342 339 348 355 358 357 357 357 352 344 340 340 339 342 344 346 346 346 347 345 342 338 338 338 336 337 336 336 336 335 333 333 332 332 331 330 325 325 323 322 317
243 251 260 278 295 309 324 331 327 335 337 345 349 350 348 346 343 336 332 330 329 330 330 333 337 341 342 336 327 326 329 332 332 331 329 327 325 324 325 326 327 327 326 327 325 324 320 314 308
256 263 271 286 301 311 317 327 320 323 329 331 336 338 337 334 335 333 328 323 322 321 319 318 324 333 336 332 323 320 324 326 327 324 322 318 317 319 318 318 320 321 322 323 322 322 320 315 309
261 266 273 280 289 296 309 319 318 313 317 320 324 327 329 329 329 329 326 322 321 319 316 317 323 324 323 322 320 320 320 319 317 315 314 314 312 313 314 315 314 314 314 314 315 315 316 315 311
266 273 283 289 293 293 293 299 307 306 308 313 315 318 322 325 325 323 325 327 324 319 318 317 318 319 322 321 322 320 316 315 314 312 310 310 310 310 312 312 311 312 312 313 313 311 309 310 309
265 277 297 296 286 283 285 292 294 300 308 312 314 315 318 320 317 318 318 320 320 318 316 317 317 316 319 320 319 318 316 315 314 310 311 307 306 304 305 306 307 308 308 309 309 307 306 306 304
261 256 260 270 276 281 284 287 293 297 303 310 312 314 316 315 315 314 315 316 318 317 316 317 316 314 316 319 318 317 317 315 315 311 313 309 304 301 301 301 303 305 304 304 304 304 304 302 300
261 259 255 268 281 289 287 287 292 296 302 306 309 310 312 313 316 315 313 313 316 315 314 314 315 313 313 313 314 314 313 314 315 314 312 312 308 304 302 302 302 303 302 301 302 302 300 298 296
259 260 264 267 274 283 290 290 289 293 300 303 306 309 312 312 311 309 309 310 311 310 309 311 311 311 310 310 311 311 311 311 311 311 311 309 310 308 303 302 301 300 299 300 300 300 298 295 294
261 262 265 267 267 275 283 285 286 288 292 297 300 304 307 307 304 302 302 304 306 307 306 306 308 307 307 307 308 307 308 308 308 308 308 306 306 306 305 300 298 298 297 297 297 296 295 294 292
261 265 267 270 271 274 280 285 284 285 287 291 294 297 299 298 296 296 297 301 303 305 305 306 306 305 304 305 308 309 307 307 307 307 305 304 304 304 303 303 301 298 296 295 294 294 294 292 291
Height
5904 5904 5904 5904 5905 5905 5903 5903 5901 5900 5899 5898 5897 5896 5896 5895 5895 5896 5892 5889 5889 5887 5886 5885 5884 5883 5883 5882 5881 5881 5880 5880 5879 5878 5877 5876 5876 5874 5874 5873 5873 5874 5875 5876 5878 5879 5880 5880 5881
5906 5905 5906 5906 5907 5907 5905 5904 5903 5902 5901 5899 5898 5897 5896 5895 5894 5893 5891 5890 5889 5888 5887 5886 5885 5884 5883 5882 5882 5881 5881 5880 5879 5878 5876 5875 5876 5875 5875 5874 5875 5875 5876 5878 5879 5880 5880 5880 5881
5907 5907 5908 5908 5908 5907 5906 5905 5904 5903 5902 5900 5899 5898 5897 5896 5895 5893 5892 5891 5890 5889 5888 5886 5886 5885 5884 5883 5883 5882 5881 5880 5879 5879 5877 5876 5877 5877 5876 5877 5877 5877 5878 5879 5880 5880 5880 5880 5880
5909 5910 5911 5911 5910 5908 5907 5906 5905 5904 5903 5902 5901 5900 5898 5897 5895 5894 5893 5892 5891 5890 5888 5887 5886 5886 5885 5884 5883 5883 5882 5881 5880 5880 5879 5879 5878 5878 5878 5878 5878 5879 5879 5880 5880 5880 5880 5880 5880
5911 5912 5912 5912 5911 5910 5908 5907 5906 5905 5904 5903 5902 5901 5899 5898 5896 5895 5894 5893 5892 5891 5889 5888 5887 5886 5886 5885 5884 5883 5882 5881 5881 5881 5881 5880 5880 5880 5880 5880 5879 5879 5880 5880 5880 5880 5880 5880 5880
5913 5913 5915 5914 5913 5911 5910 5909 5907 5906 5905 5904 5903 5902 5900 5899 5897 5896 5895 5894 5893 5891 5890 5889 5888 5887 5886 5885 5884 5883 5882 5882 5881 5881 5881 5881 5881 5881 5881 5880 5880 5880 5880 5880 5880 5879 5879 5879 5879
5915 5915 5915 5915 5914 5913 5912 5910 5909 5908 5907 5906 5905 5904 5902 5900 5899 5897 5896 5895 5893 5892 5891 5890 5888 5888 5887 5886 5885 5884 5883 5883 5882 5882 5882 5882 5882 5881 5881 5881 5881 5880 5880 5879 5879 5879 5879 5878 5878
5916 5918 5918 5917 5916 5915 5913 5912 5911 5910 5909 5908 5906 5905 5903 5902 5900 5898 5897 5896 5895 5893 5892 5890 5889 5888 5887 5887 5886 5885 5885 5884 5883 5883 5882 5882 5882 5882 5881 5881 5881 5880 5880 5879 5879 5878 5878 5877 5877
5918 5921 5919 5918 5917 5916 5915 5913 5912 5911 5910 5909 5907 5906 5905 5903 5901 5900 5898 5897 5896 5894 5893 5891 5890 5889 5888 5887 5887 5886 5885 5884 5884 5884 5883 5883 5883 5882 5882 5881 5881 5880 5880 5879 5879 5878 5878 5877 5876
5920 5921 5920 5919 5919 5917 5916 5915 5914 5913 5912 5910 5909 5907 5906 5905 5903 5901 5900 5898 5897 5896 5894 5892 5891 5890 5889 5888 5887 5887 5886 5885 5885 5884 5884 5884 5883 5883 5882 5881 5881 5880 5879 5879 5878 5878 5877 5876 5876
5921 5921 5921 5920 5919 5919 5917 5916 5915 5914 5913 5912 5910 5909 5908 5906 5904 5903 5901 5900 5898 5897 5895 5893 5892 5891 5890 5889 5888 5887 5886 5886 5885 5885 5885 5884 5884 5883 5882 5882 5881 5880 5879 5879 5878 5877 5876 5875 5875
5922 5922 5921 5921 5920 5920 5919 5917 5916 5915 5914 5913 5911 5910 5909 5907 5906 5904 5903 5901 5900 5898 5896 5895 5893 5892 5891 5890 5889 5888 5887 5887 5886 5886 5885 5885 5884 5884 5883 5882 5881 5880 5879 5878 5877 5877 5876 5875 5874
5923 5923 5923 5922 5921 5920 5920 5919 5918 5917 5915 5914 5913 5911 5910 5909 5907 5906 5904 5903 5901 5899 5898 5896 5894 5893 5892 5891 5890 5889 5888 5887 5887 5886 5885 5885 5884 5884 5883 5882 5881 5880 5879 5878 5877 5876 5875 5874 5873
5925 5924 5924 5923 5922 5922 5921 5920 5919 5918 5916 5915 5914 5913 5911 5910 5908 5907 5906 5904 5903 5901 5899 5897 5896 5894 5893 5892 5890 5889 5888 5888 5887 5886 5886 5885 5884 5883 5882 5882 5881 5879 5878 5877 5876 5875 5874 5873 5872
5925 5926 5926 5924 5924 5923 5923 5922 5920 5919 5918 5916 5915 5914 5913 5911 5910 5909 5907 5906 5904 5902 5900 5898 5897 5895 5894 5892 5891 5890 5889 5888 5887 5887 5886 5885 5884 5883 5882 5881 5880 5879 5878 5877 5876 5875 5874 5872 5871
5927 5927 5927 5926 5925 5924 5925 5924 5922 5920 5919 5917 5916 5915 5914 5912 5911 5909 5908 5906 5905 5903 5901 5900 5898 5896 5894 5893 5892 5891 5890 5889 5888 5887 5886 5885 5884 5883 5882 5881 5880 5879 5878 5877 5876 5874 5873 5872 5871
5928 5928 5928 5927 5926 5925 5925 5924 5923 5921 5920 5918 5917 5916 5914 5913 5911 5910 5908 5907 5905 5904 5902 5900 5899 5897 5895 5894 5892 5891 5890 5889 5888 5887 5886 5885 5884 5883 5882 5881 5880 5878 5877 5876 5875 5874 5872 5871 5870
5928 5928 5928 5928 5926 5926 5925 5924 5923 5922 5920 5919 5918 5916 5915 5913 5911 5910 5909 5907 5906 5904 5902 5901 5899 5897 5895 5894 5893 5892 5890 5889 5888 5887 5886 5885 5884 5883 5881 5880 5879 5878 5877 5876 5874 5873 5871 5870 5869
5927 5927 5928 5927 5926 5926 5925 5925 5923 5922 5921 5919 5918 5917 5915 5914 5912 5910 5909 5907 5905 5904 5902 5900 5899 5897 5896 5894 5893 5892 5890 5889 5888 5887 5885 5884 5883 5882 5881 5880 5879 5877 5876 5875 5873 5872 5870 5869 5868
5926 5927 5927 5927 5926 5926 5925 5925 5923 5922 5921 5920 5918 5917 5915 5914 5912 5910 5908 5907 5905 5904 5902 5900 5899 5897 5895 5894 5892 5891 5890 5888 5887 5886 5885 5883 5882 5881 5880 5879 5878 5876 5875 5873 5872 5871 5869 5868 5867
5926 5926 5926 5926 5926 5925 5925 5925 5923 5922 5921 5919 5918 5917 5915 5913 5911 5909 5908 5906 5905 5903 5902 5900 5898 5897 5895 5893 5892 5891 5889 5888 5886 5885 5884 5882 5881 5880 5879 5878 5876 5875 5873 5872 5870 5869 5868 5867 5865
5925 5925 5925 5925 5925 5925 5925 5925 5923 5921 5920 5919 5918 5916 5915 5913 5911 5909 5907 5905 5904 5902 5901 5899 5898 5896 5894 5893 5891 5890 5889 5887 5885 5884 5882 5881 5879 5878 5877 5876 5874 5873 5872 5870 5869 5867 5866 5865 5863
5924 5924 5924 5923 5924 5924 5924 5924 5924 5921 5919 5918 5917 5915 5914 5912 5910 5908 5906 5904 5903 5901 5899 5898 5896 5895 5893 5891 5890 5888 5887 5885 5884 5882 5880 5879 5877 5876 5875 5874 5872 5871 5870 5868 5867 5865 5864 5863 5861
5922 5923 5922 5922 5923 5924 5923 5923 5922 5920 5918 5917 5915 5914 5912 5911 5909 5907 5905 5903 5901 5900 5898 5896 5895 5893 5892 5890 5888 5887 5885 5883 5882 5880 5878 5877 5875 5874 5872 5871 5870 5868 5867 5865 5864 5863 5861 5860 5859
5921 5922 5923 5923 5923 5923 5922 5921 5920 5918 5916 5915 5914 5912 5911 5909 5907 5905 5904 5902 5900 5898 5896 5895 5893 5891 5890 5888 5886 5884 5883 5881 5879 5878 5876 5875 5873 5871 5870 5868 5867 5866 5864 5863 5861 5860 5858 5857 5855
5919 5920 5922 5923 5922 5922 5920 5919 5918 5916 5914 5913 5912 5910 5909 5907 5905 5903 5901 5899 5898 5896 5895 5893 5891 5889 5888 5886 5884 5882 5881 5879 5877 5875 5873 5872 5870 5869 5867 5865 5864 5862 5861 5859 5857 5856 5854 5853 5851
5917 5917 5918 5919 5918 5919 5918 5916 5915 5913 5912 5911 5909 5908 5906 5904 5903 5901 5899 5897 5896 5894 5893 5891 5889 5887 5885 5884 5882 5880 5878 5876 5874 5872 5870 5869 5867 5865 5864 5862 5860 5858 5857 5855 5853 5852 5850 5848 5847
5914 5914 5915 5916 5916 5916 5916 5914 5913 5911 5909 5908 5907 5905 5904 5902 5900 5898 5897 5895 5893 5892 5890 5888 5887 5885 5883 5881 5879 5877 5875 5872 5871 5869 5867 5865 5863 5861 5860 5858 5856 5854 5852 5850 5848 5846 5845 5843 5841
5911 5911 5911 5912 5912 5913 5913 5914 5910 5908 5907 5905 5904 5902 5901 5899 5897 5896 5894 5892 5891 5889 5888 5886 5884 5882 5880 5878 5876 5873 5871 5869 5867 5865 5863 5861 5859 5857 5855 5853 5851 5849 5847 5845 5843 5841 5839 5837 5836
5907 5908 5908 5909 5908 5908 5909 5911 5906 5904 5903 5902 5900 5899 5897 5896 5894 5892 5891 5889 5888 5886 5884 5882 5880 5878 5876 5874 5872 5870 5867 5865 5863 5861 5859 5857 5855 5853 5851 5849 5846 5844 5842 5840 5838 5836 5834 5832 5830